Погода в Любино-Малороссах

Россия / Омская область     55°12′16″N   73°00′39″E
темп.,
°C
ветер,
м/с
пор.,
м/с
влажн.,
%
обл.,
%
осадки,
мм/ч
давл.,
гПа
погр.,
м
16 апреля, пт
пт1600:00+7зюз4109265 0.0 1019169
03:00+6зюз5118613 0.0 1017188
06:00+5юз512845 0.0 1016197
09:00+9зюз6147498 0.0 1015326
12:00+13зсз696991 0.0 1016749
15:00+7с71085100 0.0 1019713
18:00+7с7106769 0.1 10211229
21:00+5ссв6117028 0.0 1023491
17 апреля, сб
сб1700:00+2ссв49765 0.0 1025375
03:00−1ссв37825 0.0 1026281
06:00−1ссв24815 0.0 1027204
09:000с22595 0.0 1027588
12:00+3сз34450 0.0 10261119
15:00+6зсз34405 0.0 10241542
18:00+7зсз354077 0.0 10231780
21:00+4юз3359100 0.0 102230
18 апреля, вс
вс1800:00+3юз4870100 0.0 1020160
03:00+2юз41074100 0.0 1017228
06:00+2юз61472100 0.0 1015342
09:00+5юз61368100 0.0 1012508
12:00+9зюз91456100 0.4 10081925
15:00+8зсз101458100 0.4 10071788
18:00+4сз10156169 1.1 10101928
21:00−4ссз11156993 0.1 10161277
19 апреля, пн
пн1900:00−5ссз101465100 0.1 10201163
03:00−6ссз912555 0.0 1022978
06:00−8ссз811535 0.0 1025932
09:00−7с8104414 0.0 10281227
12:00−4ссз793595 0.0 10291674
15:00−2с7831100 0.0 10292183
18:00−2с7835100 0.0 10302001
21:00−4с584641 0.0 1032903
20 апреля, вт
вт2000:00−5с47545 0.0 10321130
03:00−5с46575 0.0 10321111
06:00−6ссз47644 0.0 1033596
09:00−4с5747100 0.0 10331499
12:00−1с5635100 0.0 10331978
15:00+1с4530100 0.0 10322238
18:00+1ссз4531100 0.0 10322019
21:00−2сз22489 0.0 103326